Time,TemperatureF,DewpointF,PressureIn,WindDirection,WindDirectionDegrees,WindSpeedMPH,WindSpeedGustMPH,Humidity,HourlyPrecipIn,Conditions,Clouds,dailyrainin,SoftwareType,DateUTC
2013-10-08 00:00:00,51.8,48.1,30.00,WNW,293,3.0,5.0,87,0.00,,,0.81,Wunderground v.1.15,2013-10-08 04:00:00,
2013-10-08 00:30:00,51.8,47.4,30.02,NNW,337,4.0,4.0,85,0.00,,,0.00,Wunderground v.1.15,2013-10-08 04:30:00,
2013-10-08 00:59:00,51.4,47.0,30.03,WNW,290,2.0,2.0,85,0.00,,,0.00,Wunderground v.1.15,2013-10-08 04:59:00,
2013-10-08 01:29:00,50.9,46.6,30.05,NNW,327,1.0,1.0,85,0.00,,,0.00,Wunderground v.1.15,2013-10-08 05:29:00,
2013-10-08 02:00:00,50.3,46.3,30.06,WNW,286,1.0,1.0,86,0.00,,,0.00,Wunderground v.1.15,2013-10-08 06:00:00,
2013-10-08 02:30:00,50.4,46.7,30.07,WNW,288,1.0,1.0,87,0.00,,,0.00,Wunderground v.1.15,2013-10-08 06:30:00,
2013-10-08 03:00:00,49.4,46.0,30.08,West,272,0.0,0.0,88,0.00,,,0.00,Wunderground v.1.15,2013-10-08 07:00:00,
2013-10-08 03:30:00,48.5,45.7,30.08,West,281,0.0,1.0,90,0.00,,,0.00,Wunderground v.1.15,2013-10-08 07:30:00,
2013-10-08 04:00:00,47.0,44.8,30.09,WSW,245,0.0,0.0,92,0.00,,,0.00,Wunderground v.1.15,2013-10-08 08:00:00,
2013-10-08 04:30:00,45.8,44.2,30.11,ESE,123,0.0,0.0,94,0.00,,,0.00,Wunderground v.1.15,2013-10-08 08:30:00,
2013-10-08 05:00:00,44.4,43.3,30.13,ESE,123,0.0,0.0,96,0.00,,,0.00,Wunderground v.1.15,2013-10-08 09:00:00,
2013-10-08 05:30:00,43.0,41.9,30.14,ESE,123,0.0,0.0,96,0.00,,,0.00,Wunderground v.1.15,2013-10-08 09:30:00,
2013-10-08 06:00:00,43.2,42.1,30.16,ESE,123,0.0,0.0,96,0.00,,,0.00,Wunderground v.1.15,2013-10-08 10:00:00,
2013-10-08 06:30:00,43.6,42.8,30.17,SSE,167,0.0,0.0,97,0.00,,,0.00,Wunderground v.1.15,2013-10-08 10:30:00,
2013-10-08 06:59:00,44.6,44.1,30.18,SW,228,0.0,0.0,98,0.00,,,0.00,Wunderground v.1.15,2013-10-08 10:59:00,
2013-10-08 07:30:00,45.9,45.1,30.19,West,266,1.0,1.0,97,0.00,,,0.00,Wunderground v.1.15,2013-10-08 11:30:00,
2013-10-08 08:00:00,47.9,46.3,30.21,South,181,0.0,0.0,94,0.00,,,0.00,Wunderground v.1.15,2013-10-08 12:00:00,
2013-10-08 08:30:00,49.6,47.1,30.22,SW,229,2.0,2.0,91,0.00,,,0.00,Wunderground v.1.15,2013-10-08 12:30:00,
2013-10-08 09:00:00,52.1,48.3,30.24,NNW,340,3.0,3.0,87,0.00,,,0.00,Wunderground v.1.15,2013-10-08 13:00:00,
2013-10-08 09:30:00,54.5,49.8,30.25,WNW,290,2.0,2.0,84,0.00,,,0.00,Wunderground v.1.15,2013-10-08 13:30:00,
2013-10-08 10:00:00,55.1,49.7,30.27,West,278,3.0,4.0,82,0.00,,,0.00,Wunderground v.1.15,2013-10-08 14:00:00,
2013-10-08 10:30:00,56.4,48.9,30.27,NW,312,3.0,6.0,76,0.00,,,0.00,Wunderground v.1.15,2013-10-08 14:30:00,
2013-10-08 11:00:00,57.2,47.5,30.28,WNW,302,3.0,3.0,70,0.00,,,0.00,Wunderground v.1.15,2013-10-08 15:00:00,
2013-10-08 11:30:00,59.1,46.9,30.29,NNE,13,3.0,3.0,64,0.00,,,0.00,Wunderground v.1.15,2013-10-08 15:30:00,
2013-10-08 11:59:00,59.5,45.6,30.29,East,96,3.0,3.0,60,0.00,,,0.00,Wunderground v.1.15,2013-10-08 15:59:00,
2013-10-08 12:30:00,59.2,44.4,30.29,North,359,2.0,3.0,58,0.00,,,0.00,Wunderground v.1.15,2013-10-08 16:30:00,